Regional Weather Roundup
Issued by NWS Charleston, SC

Current Version | Previous Version | Text Only | Print | Product List | Glossary On
Versions: 1 2 3 4 5 6 7 8 9 10 11 12 13 14 15 16 17 18 19 20 21 22 23 24 25 26 27 28 29 30 31 32 33 34 35 36 37 38 39 40 41 42 43 44 45 46 47 48 49 50
000
ASUS42 KCHS 272311
RWRCHS

REGIONAL WEATHER ROUNDUP
NATIONAL WEATHER SERVICE CHARLESTON SC
700 PM EDT FRI MAR 27 2015

NOTE: "FAIR" INDICATES FEW OR NO CLOUDS BELOW 12,000 FEET WITH NO
SIGNIFICANT WEATHER AND/OR OBSTRUCTIONS TO VISIBILITY.

NOT ALL STATIONS ARE QUALITY CONTROLLED BY THE NATIONAL
WEATHER SERVICE. USE DATA WITH CAUTION...ESPECIALLY
DEWPOINT OBSERVATIONS.

SCZ027-030-031-034>040-042>050-280000-
...SOUTHEAST SOUTH CAROLINA...

CITY           SKY/WX    TMP DP  RH WIND       PRES   REMARKS
N CHARLESTON   CLOUDY    54  51  90 N14       29.73R
WATERFRONT PRK NOT AVBL
MOUNT PLEASANT CLOUDY    54  52  94 N13       29.72R
PINOPOLIS        N/A     55  50  82 N16       29.65R
MONCKS CORNER  CLOUDY    54  48  82 N10G18    29.74R
SUMMERVILLE    CLOUDY    54  52  94 N9        29.75R
BEAUFORT MCAS  CLOUDY    64  49  57 N14       29.71R
BEAUFORT ARPT  FAIR      64  52  63 W15G21    29.70R
HILTON HEAD IS NOT AVBL
WALTERBORO     CLOUDY    54  48  82 N12G18    29.75R
ALLENDALE      MOCLDY    59  50  72 N12G20    29.74R

...SOUTHERN MIDLANDS AND PEE DEE...

CITY           SKY/WX    TMP DP  RH WIND       PRES   REMARKS
GEORGETOWN     NOT AVBL
KINGSTREE      NOT AVBL
ORANGEBURG     CLOUDY    52  45  77 N12G18    29.77R
BARNWELL       FAIR      55  48  76 N15       29.76R
AIKEN          MOCLDY    50  41  71 NE14      29.81R
MANNING        RAIN      50  34  53 N12G20    29.76R
COLUMBIA       CLOUDY    51  41  68 N9        29.79R
SUMTER         CLOUDY    49  43  81 N10       29.77R
FLORENCE       CLOUDY    49  44  83 N14       29.77R
MYRTLE BEACH   CLOUDY    52  46  82 N13       29.72R
N MYRTLE BEACH CLOUDY    49  47  93 N12G20    29.70R

$$

GAZ063-065-086>088-099>101-113>116-118-119-134>141-150-280000-
...SOUTHEAST GEORGIA...

CITY           SKY/WX    TMP DP  RH WIND       PRES   REMARKS
SAVANNAH ARPT  CLOUDY    63  47  55 W12       29.73R
HUNTER AAF     MOCLDY    63  52  67 W12       29.71R
FORT STEWART   CLOUDY    62  46  56 W14       29.74R
STATESBORO     MOCLDY    61  40  46 NW14      29.76R
SYLVANIA       CLOUDY    62  45  53 NW9G16    29.76R
CLAXTON        FAIR      61  41  48 NW14      29.77R

...CSRA...CENTRAL AND FAR SOUTHEAST GEORGIA...

CITY           SKY/WX    TMP DP  RH WIND       PRES   REMARKS
THOMSON        PTCLDY    62  29  29 NW17G23   29.81R
AUGUSTA-BUSH   MOCLDY    58  47  66 N9        29.76R
AUGUSTA-DANIEL MOCLDY    59  46  62 NE9       29.76R
SWAINSBORO     FAIR      63  12  14 NW12G20   29.78R
VIDALIA        CLOUDY    61  41  48 W8G16     29.78R
EASTMAN        FAIR      63  34  33 NW13G23   29.83R
HAZLEHURST     FAIR      59  45  58 CALM      29.79R
ALMA           CLOUDY    59  40  49 W13       29.81R
WAYCROSS       CLOUDY    64  50  61 NW13G20   29.81R
JESUP          FAIR      63  50  63 NW10      29.79R
BAXLEY         FAIR      61  45  55 W9        29.80R
BRUNSWICK      CLOUDY    63  52  67 W13       29.77R
SAINT SIMONS   CLOUDY    62  51  67 W15G22    29.76R

$$

SCZ027-028-034-036>038-045-046-048>050-GAZ119-141-280000-
...LAKE AND SUPPLEMENTAL COASTAL OBSERVATIONS...

STATION/POSITION TIME  TEMP    WIND        PRES    WAVE   SWELL
                       AIR SEA DIR/SP/G            HT/PER HT/PER/DIR
                 (UTC) (F)     (DEG/KT/KT) (MB)    (FT/S) (FT/S/D)
UPR LAKE MARION  NOT AVBL
WINYAH BAY       NOT AVBL
LAKE MURRAY      2200   51      30/  4/  6 1007.8R
ACE BASIN NERRS  NOT AVBL
FORT PULASKI     2200   64 63  270/ 17/ 20 1005.6R
SAPELO ISLAND    2200   63     270/ 13     1006.0S

$$

ANZ835-935-AMZ111-154-330-350-352-354-370-450-454-472-280000-
...C-MAN AND BUOY OBSERVATIONS...

STATION/POSITION TIME  TEMP    WIND        PRES    WAVE   SWELL
                       AIR SEA DIR/SP/G            HT/PER HT/PER/DIR
                 (UTC) (F)     (DEG/KT/KT) (MB)    (FT/S) (FT/S/D)
BUOY 41004       2250   66 69  280/ 21/ 33 1003.1R   6/ 8   3/ 8
BUOY 41008       2250   62 61  280/ 16/ 19 1006.5R   4/ 4   2/120/ 8
FOLLY BEACH CMAN 2300   54     340/ 12/ 16 1006.2R
CAPERS NEARSHORE 2200   56     340/ 19/ 23   N/A
FRIPP NEARSHORE  2200   64     220/ 16/ 17 1004.3R


STATION/POSITION TIME  TEMP    WIND        PRES    WAVE   SWELL
                       AIR SEA DIR/SP/G            HT/PER HT/PER/DIR
                 (UTC) (F)     (DEG/KT/KT) (MB)    (FT/S) (FT/S/D)
5E ST. MARYS GA  2221      63                N/A     2/ 8
FRYING PAN BUOY  2250   61 65   10/ 10/ 12 1003.8R   6/ 8   7/180/ 8
BUOY 41025       NOT AVBL
CAPE LOOKOUT NC  2300   48      30/ 19/ 23 1005.6R
BUOY 41002       2250   71 69  220/ 14/ 16 1006.3F  10/ 8   8/190/ 8
BUOY 41010       2220   73 76  190/ 21/ 27 1008.1F
ST AUGUSTINE FL  2300   69 61  250/ 10/ 13 1008.2R


$$


USA.gov is the U.S. government's official web portal to all federal, state and local government web resources and services.